Location: Puketoi
(40.5833°S, 176.0167°E)
Time: 11:55:10
(UTC+00:00)

SL-4 R/B - Pass Details

Date: 08 February 2023
Orbit: 423 x 637 km, 51.6° (Epoch: 31 March)

Event Time Altitude Azimuth Distance (km) Brightness Sun altitude
Exits shadow 15:09:38 22° 237° (WSW) 1,427 4.0 -23.3°
Maximum altitude 15:11:34 29° 199° (SSW) 1,196 3.9 -23.0°
Drops below altitude 10° 15:15:41 10° 138° (SE) 2,038 6.0 -22.5°
Sets 15:18:15 0° 126° (SE) 2,925 7.2 -22.2°
